Location: Finkenwalde
(53.3770°N, 14.6418°E)
Time: 04:24:49
(UTC+00:00)

Cosmos 1607 - Pass Details

Date: 05 February 2023
Orbit: 921 x 981 km, 65.0° (Epoch: 24 March)

Event Time Altitude Azimuth Distance (km) Brightness Sun altitude
Rises 16:55:50 0° 235° (SW) 3,561 8.4 -9.8°
Reaches altitude 10° 16:58:22 10° 238° (WSW) 2,625 7.6 -10.2°
Maximum altitude 17:04:27 65° 320° (NW) 1,028 4.3 -11.1°
Drops below altitude 10° 17:10:38 10° 43° (NE) 2,671 5.8 -12.0°
Enters shadow 17:10:57 - 43° (NE) 2,784 5.9 -12.0°
